| time (UTC) | temp F | wind direction | speed MPH | gust MPH | rain 1hr in | rain 24hr in | rain mn in | humidity % | barometer mb |
| 20260906220518 | 86 | 217 | 8.0 | 18.0 | 0.00 | 0.00 | 0.00 | 28 | 1019.1 |
| 20260906220114 | 87 | 192 | 10.0 | 18.0 | 0.00 | 0.00 | 0.00 | 27 | 1019.1 |
| 20260906215524 | 87 | 221 | 12.0 | 18.0 | 0.00 | 0.00 | 0.00 | 28 | 1019.1 |
| 20260906215021 | 85 | 225 | 8.0 | 14.0 | 0.00 | 0.00 | 0.00 | 29 | 1019.2 |
| 20260906214539 | 84 | 169 | 7.0 | 18.0 | 0.00 | 0.00 | 0.00 | 32 | 1019.3 |
| 20260906214021 | 84 | 125 | 8.0 | 18.0 | 0.00 | 0.00 | 0.00 | 32 | 1019.4 |
| 20260906213520 | 84 | 117 | 10.0 | 20.0 | 0.00 | 0.00 | 0.00 | 35 | 1019.5 |
| 20260906213048 | 84 | 128 | 12.0 | 20.0 | 0.00 | 0.00 | 0.00 | 33 | 1019.6 |
| 20260906212519 | 84 | 89 | 9.0 | 17.0 | 0.00 | 0.00 | 0.00 | 31 | 1019.6 |
| 20260906212020 | 84 | 107 | 6.0 | 17.0 | 0.00 | 0.00 | 0.00 | 33 | 1019.6 |
| 20260906211541 | 84 | 99 | 6.0 | 17.0 | 0.00 | 0.00 | 0.00 | 31 | 1019.7 |
| 20260906211017 | 84 | 174 | 9.0 | 23.0 | 0.00 | 0.00 | 0.00 | 31 | 1019.9 |
| 20260906210526 | 85 | 165 | 14.0 | 23.0 | 0.00 | 0.00 | 0.00 | 32 | 1020.0 |
| 20260906210054 | 86 | 149 | 9.0 | 19.0 | 0.00 | 0.00 | 0.00 | 31 | 1019.7 |
| 20260906205518 | 85 | 94 | 9.0 | 21.0 | 0.00 | 0.00 | 0.00 | 32 | 1019.9 |
| 20260906205019 | 83 | 99 | 11.0 | 21.0 | 0.00 | 0.00 | 0.00 | 32 | 1020.0 |
| 20260906204538 | 83 | 91 | 8.0 | 16.0 | 0.00 | 0.00 | 0.00 | 33 | 1020.0 |
| 20260906204019 | 83 | 89 | 9.0 | 20.0 | 0.00 | 0.00 | 0.00 | 33 | 1020.1 |
| 20260906203519 | 83 | 101 | 11.0 | 20.0 | 0.00 | 0.00 | 0.00 | 32 | 1020.2 |
| 20260906203041 | 83 | 91 | 9.0 | 20.0 | 0.00 | 0.00 | 0.00 | 32 | 1020.3 |
| 20260906202521 | 83 | 90 | 7.0 | 12.0 | 0.00 | 0.00 | 0.00 | 31 | 1020.3 |
| 20260906202020 | 83 | 100 | 4.0 | 16.0 | 0.00 | 0.00 | 0.00 | 32 | 1020.3 |
| 20260906201539 | 83 | 85 | 6.0 | 16.0 | 0.00 | 0.00 | 0.00 | 31 | 1020.5 |
| 20260906201020 | 83 | 127 | 9.0 | 16.0 | 0.00 | 0.00 | 0.00 | 32 | 1020.6 |
| 20260906200521 | 83 | 124 | 7.0 | 14.0 | 0.00 | 0.00 | 0.00 | 31 | 1020.6 |
| 20260906200048 | 84 | 80 | 8.0 | 21.0 | 0.00 | 0.00 | 0.00 | 31 | 1020.6 |
| 20260906195518 | 84 | 113 | 9.0 | 21.0 | 0.00 | 0.00 | 0.00 | 30 | 1020.7 |
| 20260906195021 | 84 | 140 | 13.0 | 21.0 | 0.00 | 0.00 | 0.00 | 31 | 1020.7 |
| 20260906194547 | 84 | 121 | 10.0 | 20.0 | 0.00 | 0.00 | 0.00 | 31 | 1020.7 |
| 20260906194020 | 83 | 161 | 11.0 | 20.0 | 0.00 | 0.00 | 0.00 | 31 | 1020.8 |
| 20260906193518 | 83 | 94 | 6.0 | 16.0 | 0.00 | 0.00 | 0.00 | 32 | 1020.8 |
| 20260906193038 | 83 | 111 | 8.0 | 17.0 | 0.00 | 0.00 | 0.00 | 31 | 1021.0 |
| 20260906192519 | 82 | 146 | 9.0 | 17.0 | 0.00 | 0.00 | 0.00 | 32 | 1021.0 |
| 20260906192018 | 82 | 69 | 5.0 | 15.0 | 0.00 | 0.00 | 0.00 | 31 | 1021.0 |
| 20260906191540 | 82 | 128 | 7.0 | 15.0 | 0.00 | 0.00 | 0.00 | 31 | 1021.1 |
| 20260906191019 | 83 | 94 | 8.0 | 15.0 | 0.00 | 0.00 | 0.00 | 31 | 1021.2 |
| 20260906190517 | 84 | 112 | 6.0 | 15.0 | 0.00 | 0.00 | 0.00 | 30 | 1021.2 |
| 20260906190040 | 84 | 42 | 9.0 | 14.0 | 0.00 | 0.00 | 0.00 | 32 | 1021.3 |
| 20260906185519 | 83 | 36 | 8.0 | 15.0 | 0.00 | 0.00 | 0.00 | 32 | 1021.6 |
| 20260906185019 | 83 | 123 | 9.0 | 15.0 | 0.00 | 0.00 | 0.00 | 30 | 1021.6 |
| 20260906184540 | 83 | 85 | 6.0 | 12.0 | 0.00 | 0.00 | 0.00 | 33 | 1021.7 |
| 20260906184019 | 84 | 124 | 4.0 | 13.0 | 0.00 | 0.00 | 0.00 | 32 | 1021.8 |
| 20260906183524 | 84 | 95 | 8.0 | 14.0 | 0.00 | 0.00 | 0.00 | 30 | 1022.1 |
| 20260906183041 | 83 | 160 | 7.0 | 14.0 | 0.00 | 0.00 | 0.00 | 31 | 1022.2 |
| 20260906182522 | 83 | 72 | 5.0 | 14.0 | 0.00 | 0.00 | 0.00 | 33 | 1022.3 |
| 20260906182021 | 82 | 72 | 6.0 | 13.0 | 0.00 | 0.00 | 0.00 | 33 | 1022.4 |
| 20260906181543 | 82 | 99 | 6.0 | 10.0 | 0.00 | 0.00 | 0.00 | 33 | 1022.5 |
| 20260906181019 | 82 | 46 | 2.0 | 11.0 | 0.00 | 0.00 | 0.00 | 32 | 1022.6 |
| 20260906180519 | 82 | 122 | 5.0 | 11.0 | 0.00 | 0.00 | 0.00 | 32 | 1022.8 |
| 20260906180042 | 82 | 90 | 5.0 | 9.0 | 0.00 | 0.00 | 0.00 | 32 | 1022.9 |
| 20260906175519 | 83 | 124 | 2.0 | 9.0 | 0.00 | 0.00 | 0.00 | 32 | 1023.0 |
| 20260906175025 | 84 | 120 | 6.0 | 10.0 | 0.00 | 0.00 | 0.00 | 30 | 1023.1 |
| 20260906174542 | 85 | 219 | 2.0 | 10.0 | 0.00 | 0.00 | 0.00 | 30 | 1023.2 |
| 20260906174021 | 84 | 166 | 5.0 | 10.0 | 0.00 | 0.00 | 0.00 | 30 | 1023.4 |
| 20260906173520 | 84 | 229 | 1.0 | 6.0 | 0.00 | 0.00 | 0.00 | 29 | 1023.4 |
| 20260906173038 | 83 | 0 | 2.0 | 5.0 | 0.00 | 0.00 | 0.00 | 29 | 1023.5 |
| 20260906172521 | 83 | 281 | 3.0 | 9.0 | 0.00 | 0.00 | 0.00 | 29 | 1023.6 |
| 20260906172020 | 81 | 218 | 3.0 | 9.0 | 0.00 | 0.00 | 0.00 | 31 | 1023.7 |
| 20260906171538 | 80 | 323 | 2.0 | 6.0 | 0.00 | 0.00 | 0.00 | 32 | 1023.8 |
| 20260906171017 | 79 | 72 | 1.0 | 5.0 | 0.00 | 0.00 | 0.00 | 34 | 1023.8 |
| 20260906170525 | 79 | 314 | 0.0 | 6.0 | 0.00 | 0.00 | 0.00 | 34 | 1023.9 |
| 20260906170049 | 79 | 113 | 4.0 | 6.0 | 0.00 | 0.00 | 0.00 | 34 | 1023.9 |
| 20260906165517 | 79 | 61 | 1.0 | 7.0 | 0.00 | 0.00 | 0.00 | 35 | 1024.0 |
| 20260906165022 | 77 | 187 | 2.0 | 11.0 | 0.00 | 0.00 | 0.00 | 37 | 1023.9 |
| 20260906164544 | 76 | 63 | 4.0 | 11.0 | 0.00 | 0.00 | 0.00 | 38 | 1024.0 |
| 20260906164020 | 75 | 349 | 3.0 | 8.0 | 0.00 | 0.00 | 0.00 | 41 | 1024.0 |
| 20260906163520 | 75 | 359 | 3.0 | 11.0 | 0.00 | 0.00 | 0.00 | 42 | 1024.1 |
| 20260906163049 | 75 | 53 | 4.0 | 11.0 | 0.00 | 0.00 | 0.00 | 43 | 1024.1 |
| 20260906162520 | 75 | 55 | 4.0 | 7.0 | 0.00 | 0.00 | 0.00 | 44 | 1024.1 |
| 20260906162019 | 75 | 347 | 2.0 | 7.0 | 0.00 | 0.00 | 0.00 | 44 | 1024.2 |
| 20260906161540 | 74 | 10 | 1.0 | 6.0 | 0.00 | 0.00 | 0.00 | 45 | 1024.2 |
| 20260906161019 | 74 | 23 | 1.0 | 6.0 | 0.00 | 0.00 | 0.00 | 44 | 1024.3 |
| 20260906160519 | 73 | 359 | 4.0 | 6.0 | 0.00 | 0.00 | 0.00 | 45 | 1024.3 |
| 20260906160048 | 73 | 90 | 3.0 | 5.0 | 0.00 | 0.00 | 0.00 | 44 | 1024.2 |
| 20260906155524 | 74 | 297 | 2.0 | 4.0 | 0.00 | 0.00 | 0.00 | 44 | 1024.2 |
| 20260906155020 | 74 | 10 | 1.0 | 4.0 | 0.00 | 0.00 | 0.00 | 44 | 1024.2 |
| 20260906154537 | 73 | 333 | 1.0 | 4.0 | 0.00 | 0.00 | 0.00 | 45 | 1024.1 |
| 20260906154021 | 73 | 4 | 2.0 | 5.0 | 0.00 | 0.00 | 0.00 | 45 | 1024.1 |
| 20260906153520 | 72 | 360 | 2.0 | 5.0 | 0.00 | 0.00 | 0.00 | 45 | 1024.0 |
| 20260906153043 | 73 | 345 | 2.0 | 5.0 | 0.00 | 0.00 | 0.00 | 45 | 1024.1 |
| 20260906152522 | 72 | 307 | 1.0 | 3.0 | 0.00 | 0.00 | 0.00 | 48 | 1024.2 |
| 20260906152020 | 71 | 0 | 1.0 | 3.0 | 0.00 | 0.00 | 0.00 | 48 | 1024.0 |
| 20260906151540 | 70 | 0 | 1.0 | 4.0 | 0.00 | 0.00 | 0.00 | 49 | 1024.1 |
| 20260906151019 | 70 | 0 | 0.0 | 4.0 | 0.00 | 0.00 | 0.00 | 51 | 1024.1 |
| 20260906150519 | 70 | 8 | 0.0 | 3.0 | 0.00 | 0.00 | 0.00 | 52 | 1024.3 |
| 20260906150052 | 69 | 30 | 0.0 | 4.0 | 0.00 | 0.00 | 0.00 | 53 | 1024.3 |
| 20260906145520 | 68 | 4 | 1.0 | 5.0 | 0.00 | 0.00 | 0.00 | 58 | 1024.3 |
| 20260906145020 | 66 | 1 | 1.0 | 5.0 | 0.00 | 0.00 | 0.00 | 61 | 1024.3 |
| 20260906144556 | 65 | 6 | 2.0 | 5.0 | 0.00 | 0.00 | 0.00 | 64 | 1024.3 |
| 20260906144020 | 65 | 49 | 2.0 | 4.0 | 0.00 | 0.00 | 0.00 | 65 | 1024.2 |
| 20260906143518 | 64 | 77 | 2.0 | 4.0 | 0.00 | 0.00 | 0.00 | 66 | 1024.3 |
| 20260906143039 | 64 | 49 | 1.0 | 4.0 | 0.00 | 0.00 | 0.00 | 67 | 1024.2 |
| 20260906142519 | 64 | 53 | 2.0 | 4.0 | 0.00 | 0.00 | 0.00 | 67 | 1024.2 |
| 20260906142018 | 64 | 52 | 2.0 | 5.0 | 0.00 | 0.00 | 0.00 | 65 | 1024.3 |
| 20260906141545 | 63 | 57 | 2.0 | 5.0 | 0.00 | 0.00 | 0.00 | 64 | 1024.3 |
| 20260906141019 | 64 | 41 | 2.0 | 5.0 | 0.00 | 0.00 | 0.00 | 61 | 1024.4 |
| 20260906140517 | 64 | 85 | 1.0 | 4.0 | 0.00 | 0.00 | 0.00 | 57 | 1024.4 |
| 20260906140040 | 65 | 0 | 0.0 | 0.0 | 0.00 | 0.00 | 0.00 | 55 | 1024.3 |
| 20260906135520 | 64 | 0 | 0.0 | 0.0 | 0.00 | 0.00 | 0.00 | 56 | 1024.2 |
| 20260906135020 | 64 | 0 | 0.0 | 0.0 | 0.00 | 0.00 | 0.00 | 56 | 1024.2 |
| 20260906134542 | 63 | 0 | 0.0 | 0.0 | 0.00 | 0.00 | 0.00 | 59 | 1024.1 |
| 20260906134019 | 62 | 0 | 0.0 | 0.0 | 0.00 | 0.00 | 0.00 | 58 | 1024.0 |
| 20260906133520 | 62 | 0 | 0.0 | 0.0 | 0.00 | 0.00 | 0.00 | 59 | 1024.0 |
| 20260906133036 | 62 | 0 | 0.0 | 2.0 | 0.00 | 0.00 | 0.00 | 62 | 1023.9 |
| 20260906132520 | 61 | 0 | 0.0 | 3.0 | 0.00 | 0.00 | 0.00 | 63 | 1023.8 |
| 20260906132026 | 61 | 36 | 1.0 | 3.0 | 0.00 | 0.00 | 0.00 | 63 | 1023.8 |
| 20260906131538 | 60 | 36 | 1.0 | 4.0 | 0.00 | 0.00 | 0.00 | 63 | 1023.8 |
| 20260906131020 | 60 | 40 | 2.0 | 4.0 | 0.00 | 0.00 | 0.00 | 62 | 1023.8 |
| 20260906130519 | 60 | 46 | 2.0 | 5.0 | 0.00 | 0.00 | 0.00 | 63 | 1023.8 |
| 20260906130047 | 60 | 72 | 3.0 | 5.0 | 0.00 | 0.00 | 0.00 | 62 | 1023.7 |
| 20260906125522 | 60 | 80 | 3.0 | 5.0 | 0.00 | 0.00 | 0.00 | 61 | 1023.8 |
| 20260906125023 | 60 | 78 | 1.0 | 4.0 | 0.00 | 0.00 | 0.00 | 61 | 1023.7 |
| 20260906124538 | 60 | 0 | 1.0 | 4.0 | 0.00 | 0.00 | 0.00 | 61 | 1023.7 |
| 20260906124016 | 60 | 65 | 1.0 | 4.0 | 0.00 | 0.00 | 0.00 | 61 | 1023.7 |
| 20260906123520 | 60 | 0 | 2.0 | 4.0 | 0.00 | 0.00 | 0.00 | 60 | 1023.6 |
| 20260906123038 | 60 | 0 | 2.0 | 7.0 | 0.00 | 0.00 | 0.00 | 60 | 1023.5 |
| 20260906122521 | 61 | 30 | 2.0 | 7.0 | 0.00 | 0.00 | 0.00 | 60 | 1023.6 |
| 20260906122018 | 61 | 41 | 4.0 | 7.0 | 0.00 | 0.00 | 0.00 | 59 | 1023.6 |
| 20260906121538 | 61 | 61 | 2.0 | 4.0 | 0.00 | 0.00 | 0.00 | 59 | 1023.6 |
| 20260906121020 | 61 | 42 | 0.0 | 4.0 | 0.00 | 0.00 | 0.00 | 59 | 1023.6 |
| 20260906120520 | 61 | 60 | 2.0 | 4.0 | 0.00 | 0.00 | 0.00 | 59 | 1023.6 |
| 20260906120048 | 61 | 74 | 1.0 | 3.0 | 0.00 | 0.00 | 0.00 | 58 | 1023.6 |
| 20260906115521 | 61 | 0 | 0.0 | 0.0 | 0.00 | 0.00 | 0.00 | 58 | 1023.6 |
| 20260906115019 | 61 | 0 | 0.0 | 0.0 | 0.00 | 0.00 | 0.00 | 57 | 1023.6 |
| 20260906114541 | 61 | 0 | 0.0 | 0.0 | 0.00 | 0.00 | 0.00 | 57 | 1023.6 |
| 20260906114021 | 61 | 0 | 0.0 | 0.0 | 0.00 | 0.00 | 0.00 | 57 | 1023.6 |
| 20260906113521 | 62 | 0 | 0.0 | 0.0 | 0.00 | 0.00 | 0.00 | 56 | 1023.6 |
| 20260906113038 | 62 | 0 | 0.0 | 0.0 | 0.00 | 0.00 | 0.00 | 55 | 1023.5 |
| 20260906112520 | 62 | 0 | 0.0 | 0.0 | 0.00 | 0.00 | 0.00 | 54 | 1023.4 |
| 20260906112021 | 63 | 0 | 0.0 | 0.0 | 0.00 | 0.00 | 0.00 | 54 | 1023.4 |
| 20260906111544 | 63 | 0 | 0.0 | 0.0 | 0.00 | 0.00 | 0.00 | 54 | 1023.3 |
| 20260906111019 | 62 | 0 | 0.0 | 0.0 | 0.00 | 0.00 | 0.00 | 54 | 1023.4 |
| 20260906110520 | 63 | 0 | 0.0 | 0.0 | 0.00 | 0.00 | 0.00 | 53 | 1023.4 |
| 20260906110044 | 64 | 0 | 0.0 | 3.0 | 0.00 | 0.00 | 0.00 | 52 | 1023.4 |
| 20260906105519 | 64 | 0 | 0.0 | 4.0 | 0.00 | 0.00 | 0.00 | 52 | 1023.4 |
| 20260906105021 | 64 | 0 | 2.0 | 4.0 | 0.00 | 0.00 | 0.00 | 52 | 1023.3 |
| 20260906104545 | 64 | 89 | 0.0 | 3.0 | 0.00 | 0.00 | 0.00 | 52 | 1023.2 |
| 20260906104016 | 63 | 0 | 0.0 | 3.0 | 0.00 | 0.00 | 0.00 | 53 | 1023.2 |
| 20260906103522 | 63 | 0 | 0.0 | 4.0 | 0.00 | 0.00 | 0.00 | 54 | 1023.2 |
| 20260906103036 | 62 | 147 | 1.0 | 4.0 | 0.00 | 0.00 | 0.00 | 54 | 1023.2 |
| 20260906102521 | 63 | 136 | 3.0 | 4.0 | 0.00 | 0.00 | 0.00 | 54 | 1023.2 |
| 20260906102021 | 63 | 136 | 2.0 | 4.0 | 0.00 | 0.00 | 0.00 | 53 | 1023.2 |
| 20260906101537 | 62 | 0 | 0.0 | 3.0 | 0.00 | 0.00 | 0.00 | 54 | 1023.2 |
| 20260906101020 | 63 | 155 | 1.0 | 3.0 | 0.00 | 0.00 | 0.00 | 54 | 1023.2 |
| 20260906100520 | 63 | 155 | 2.0 | 3.0 | 0.00 | 0.00 | 0.00 | 53 | 1023.2 |
| 20260906100044 | 63 | 155 | 1.0 | 3.0 | 0.00 | 0.00 | 0.00 | 53 | 1023.2 |
| 20260906095519 | 63 | 155 | 1.0 | 3.0 | 0.00 | 0.00 | 0.00 | 53 | 1023.2 |
| 20260906095021 | 63 | 0 | 0.0 | 2.0 | 0.00 | 0.00 | 0.00 | 52 | 1023.3 |
| 20260906094605 | 64 | 0 | 0.0 | 2.0 | 0.00 | 0.00 | 0.00 | 52 | 1023.2 |
| 20260906094021 | 64 | 0 | 0.0 | 3.0 | 0.00 | 0.00 | 0.00 | 52 | 1023.0 |
| 20260906093519 | 64 | 0 | 1.0 | 3.0 | 0.00 | 0.00 | 0.00 | 51 | 1023.1 |
| 20260906093039 | 64 | 155 | 0.0 | 1.0 | 0.00 | 0.00 | 0.00 | 50 | 1023.1 |
| 20260906092520 | 65 | 0 | 0.0 | 3.0 | 0.00 | 0.00 | 0.00 | 50 | 1023.1 |
| 20260906092021 | 65 | 0 | 0.0 | 3.0 | 0.00 | 0.00 | 0.00 | 50 | 1023.1 |
| 20260906091545 | 65 | 155 | 2.0 | 3.0 | 0.00 | 0.00 | 0.00 | 50 | 1023.1 |
| 20260906091019 | 66 | 155 | 1.0 | 3.0 | 0.00 | 0.00 | 0.00 | 48 | 1023.0 |
| 20260906090521 | 66 | 0 | 0.0 | 0.0 | 0.00 | 0.00 | 0.00 | 48 | 1023.0 |
| 20260906090037 | 66 | 0 | 0.0 | 1.0 | 0.00 | 0.00 | 0.00 | 48 | 1023.0 |
| 20260906085520 | 66 | 0 | 0.0 | 1.0 | 0.00 | 0.00 | 0.00 | 48 | 1022.9 |
| 20260906085021 | 66 | 155 | 0.0 | 3.0 | 0.00 | 0.00 | 0.00 | 48 | 1022.9 |
| 20260906084540 | 66 | 0 | 1.0 | 3.0 | 0.00 | 0.00 | 0.00 | 48 | 1022.9 |
| 20260906084020 | 66 | 155 | 2.0 | 3.0 | 0.00 | 0.00 | 0.00 | 48 | 1022.8 |
| 20260906083521 | 65 | 155 | 2.0 | 4.0 | 0.00 | 0.00 | 0.00 | 49 | 1023.0 |
| 20260906083037 | 65 | 155 | 1.0 | 4.0 | 0.00 | 0.00 | 0.00 | 49 | 1023.0 |
| 20260906082519 | 65 | 147 | 2.0 | 4.0 | 0.00 | 0.00 | 0.00 | 49 | 1023.0 |
| 20260906082024 | 65 | 143 | 2.0 | 4.0 | 0.00 | 0.00 | 0.00 | 49 | 1023.0 |
| 20260906081547 | 65 | 148 | 3.0 | 4.0 | 0.00 | 0.00 | 0.00 | 49 | 1023.0 |
| 20260906081019 | 65 | 166 | 1.0 | 4.0 | 0.00 | 0.00 | 0.00 | 49 | 1023.0 |
| 20260906080523 | 65 | 166 | 3.0 | 6.0 | 0.00 | 0.00 | 0.00 | 49 | 1023.1 |
| 20260906080049 | 65 | 169 | 3.0 | 6.0 | 0.00 | 0.00 | 0.00 | 50 | 1023.2 |
| 20260906075517 | 65 | 174 | 3.0 | 5.0 | 0.00 | 0.00 | 0.00 | 50 | 1023.2 |
| 20260906075020 | 65 | 186 | 3.0 | 5.0 | 0.00 | 0.00 | 0.00 | 51 | 1023.2 |
| 20260906074538 | 64 | 172 | 2.0 | 5.0 | 0.00 | 0.00 | 0.00 | 51 | 1023.2 |
| 20260906074016 | 64 | 176 | 3.0 | 5.0 | 0.00 | 0.00 | 0.00 | 52 | 1023.2 |
| 20260906073519 | 64 | 174 | 3.0 | 5.0 | 0.00 | 0.00 | 0.00 | 53 | 1023.1 |
| 20260906073039 | 64 | 185 | 2.0 | 4.0 | 0.00 | 0.00 | 0.00 | 53 | 1023.2 |
| 20260906072521 | 64 | 170 | 3.0 | 4.0 | 0.00 | 0.00 | 0.00 | 53 | 1023.2 |
| 20260906072020 | 64 | 169 | 3.0 | 4.0 | 0.00 | 0.00 | 0.00 | 53 | 1023.2 |
| 20260906071537 | 65 | 181 | 2.0 | 3.0 | 0.00 | 0.00 | 0.00 | 52 | 1023.2 |
| 20260906071018 | 65 | 139 | 1.0 | 3.0 | 0.00 | 0.00 | 0.00 | 51 | 1023.2 |
| 20260906070524 | 66 | 0 | 0.0 | 0.0 | 0.00 | 0.00 | 0.00 | 50 | 1023.2 |
| 20260906070040 | 66 | 0 | 0.0 | 0.0 | 0.00 | 0.00 | 0.00 | 50 | 1023.2 |
| 20260906065519 | 66 | 0 | 0.0 | 0.0 | 0.00 | 0.00 | 0.00 | 50 | 1023.0 |
| 20260906065017 | 66 | 0 | 0.0 | 3.0 | 0.00 | 0.00 | 0.00 | 50 | 1023.0 |
| 20260906064538 | 66 | 0 | 1.0 | 3.0 | 0.00 | 0.00 | 0.00 | 50 | 1023.0 |
| 20260906064018 | 66 | 139 | 1.0 | 3.0 | 0.00 | 0.00 | 0.00 | 50 | 1023.1 |
| 20260906063521 | 66 | 139 | 1.0 | 3.0 | 0.00 | 0.00 | 0.00 | 50 | 1023.2 |
| 20260906063037 | 66 | 141 | 2.0 | 3.0 | 0.00 | 0.00 | 0.00 | 51 | 1023.2 |
| 20260906062522 | 67 | 165 | 2.0 | 3.0 | 0.00 | 0.00 | 0.00 | 51 | 1023.2 |
| 20260906062020 | 68 | 0 | 0.0 | 3.0 | 0.00 | 0.00 | 0.00 | 52 | 1023.2 |
| 20260906061543 | 68 | 300 | 0.0 | 3.0 | 0.00 | 0.00 | 0.00 | 49 | 1023.2 |
| 20260906061018 | 68 | 0 | 0.0 | 3.0 | 0.00 | 0.00 | 0.00 | 48 | 1023.2 |
| 20260906060521 | 68 | 313 | 1.0 | 6.0 | 0.00 | 0.00 | 0.00 | 48 | 1023.4 |
| 20260906060040 | 69 | 301 | 0.0 | 8.0 | 0.00 | 0.00 | 0.00 | 48 | 1023.5 |
| 20260906055519 | 69 | 359 | 5.0 | 8.0 | 0.00 | 0.00 | 0.00 | 47 | 1023.4 |
| 20260906055019 | 69 | 4 | 3.0 | 5.0 | 0.00 | 0.00 | 0.00 | 48 | 1023.5 |
| 20260906054537 | 70 | 325 | 0.0 | 4.0 | 0.00 | 0.00 | 0.00 | 48 | 1023.5 |
| 20260906054021 | 70 | 0 | 0.0 | 6.0 | 0.00 | 0.00 | 0.00 | 50 | 1023.5 |
| 20260906053519 | 71 | 345 | 2.0 | 7.0 | 0.00 | 0.00 | 0.00 | 48 | 1023.4 |
| 20260906053038 | 71 | 35 | 3.0 | 13.0 | 0.00 | 0.00 | 0.00 | 45 | 1023.4 |
| 20260906052518 | 73 | 339 | 7.0 | 13.0 | 0.00 | 0.00 | 0.00 | 45 | 1023.6 |
| 20260906052019 | 73 | 34 | 2.0 | 5.0 | 0.00 | 0.00 | 0.00 | 50 | 1023.2 |
| 20260906051540 | 73 | 75 | 2.0 | 5.0 | 0.00 | 0.00 | 0.00 | 50 | 1023.4 |
| 20260906051019 | 73 | 90 | 3.0 | 5.0 | 0.00 | 0.00 | 0.00 | 51 | 1023.3 |
| 20260906050519 | 72 | 94 | 2.0 | 6.0 | 0.00 | 0.00 | 0.00 | 51 | 1023.4 |
| 20260906050042 | 72 | 118 | 1.0 | 6.0 | 0.00 | 0.00 | 0.00 | 51 | 1023.4 |
| 20260906045520 | 72 | 108 | 2.0 | 4.0 | 0.00 | 0.00 | 0.00 | 51 | 1023.4 |
| 20260906045018 | 73 | 84 | 1.0 | 4.0 | 0.00 | 0.00 | 0.00 | 50 | 1023.4 |
| 20260906044544 | 73 | 92 | 1.0 | 5.0 | 0.00 | 0.00 | 0.00 | 50 | 1023.5 |
| 20260906044021 | 73 | 79 | 0.0 | 5.0 | 0.00 | 0.00 | 0.00 | 51 | 1023.5 |
| 20260906043522 | 73 | 115 | 3.0 | 5.0 | 0.00 | 0.00 | 0.00 | 50 | 1023.4 |
| 20260906043043 | 73 | 91 | 2.0 | 5.0 | 0.00 | 0.00 | 0.00 | 50 | 1023.4 |
| 20260906042551 | 74 | 122 | 2.0 | 5.0 | 0.00 | 0.00 | 0.00 | 49 | 1023.4 |
| 20260906042019 | 74 | 91 | 3.0 | 5.0 | 0.00 | 0.00 | 0.00 | 50 | 1023.5 |
| 20260906041541 | 74 | 88 | 3.0 | 5.0 | 0.00 | 0.00 | 0.00 | 49 | 1023.4 |
| 20260906041024 | 74 | 91 | 3.0 | 5.0 | 0.00 | 0.00 | 0.00 | 49 | 1023.5 |
| 20260906040523 | 74 | 91 | 3.0 | 4.0 | 0.00 | 0.00 | 0.00 | 49 | 1023.5 |
| 20260906040041 | 74 | 98 | 0.0 | 4.0 | 0.00 | 0.00 | 0.00 | 48 | 1023.5 |
| 20260906035523 | 74 | 0 | 0.0 | 4.0 | 0.00 | 0.00 | 0.00 | 47 | 1023.4 |
| 20260906035024 | 75 | 220 | 2.0 | 7.0 | 0.00 | 0.00 | 0.00 | 46 | 1023.5 |
| 20260906034543 | 75 | 174 | 4.0 | 8.0 | 0.00 | 0.00 | 0.00 | 46 | 1023.4 |
| 20260906034021 | 75 | 174 | 4.0 | 10.0 | 0.00 | 0.00 | 0.00 | 45 | 1023.4 |
| 20260906033519 | 75 | 200 | 6.0 | 10.0 | 0.00 | 0.00 | 0.00 | 39 | 1023.4 |
| 20260906033040 | 76 | 144 | 0.0 | 12.0 | 0.00 | 0.00 | 0.00 | 32 | 1023.2 |
| 20260906032524 | 75 | 144 | 1.0 | 17.0 | 0.00 | 0.00 | 0.00 | 32 | 1023.2 |
| 20260906032019 | 75 | 153 | 9.0 | 17.0 | 0.00 | 0.00 | 0.00 | 32 | 1023.5 |
| 20260906031548 | 72 | 152 | 12.0 | 17.0 | 0.00 | 0.00 | 0.00 | 35 | 1023.3 |
| 20260906031018 | 71 | 166 | 4.0 | 6.0 | 0.00 | 0.00 | 0.00 | 36 | 1022.7 |
| 20260906030520 | 72 | 124 | 3.0 | 10.0 | 0.00 | 0.00 | 0.00 | 35 | 1022.3 |
| 20260906030039 | 72 | 0 | 1.0 | 10.0 | 0.00 | 0.00 | 0.00 | 34 | 1022.3 |
| 20260906025521 | 73 | 342 | 7.0 | 10.0 | 0.00 | 0.00 | 0.00 | 34 | 1022.2 |
| 20260906025020 | 73 | 155 | 3.0 | 5.0 | 0.00 | 0.00 | 0.00 | 33 | 1021.9 |
| 20260906024542 | 74 | 160 | 4.0 | 5.0 | 0.00 | 0.00 | 0.00 | 32 | 1021.8 |
| 20260906024025 | 75 | 172 | 3.0 | 5.0 | 0.00 | 0.00 | 0.00 | 31 | 1021.7 |
| 20260906023521 | 76 | 184 | 2.0 | 4.0 | 0.00 | 0.00 | 0.00 | 30 | 1021.6 |
| 20260906023042 | 76 | 226 | 2.0 | 4.0 | 0.00 | 0.00 | 0.00 | 30 | 1021.7 |
| 20260906022521 | 76 | 130 | 1.0 | 3.0 | 0.00 | 0.00 | 0.00 | 29 | 1021.7 |
| 20260906022018 | 76 | 130 | 2.0 | 3.0 | 0.00 | 0.00 | 0.00 | 29 | 1021.7 |
| 20260906021540 | 75 | 131 | 2.0 | 3.0 | 0.00 | 0.00 | 0.00 | 30 | 1021.7 |
| 20260906021019 | 74 | 131 | 2.0 | 5.0 | 0.00 | 0.00 | 0.00 | 31 | 1021.6 |
| 20260906020520 | 74 | 137 | 2.0 | 5.0 | 0.00 | 0.00 | 0.00 | 31 | 1021.6 |
| 20260906020049 | 75 | 131 | 3.0 | 5.0 | 0.00 | 0.00 | 0.00 | 30 | 1021.5 |
| 20260906015526 | 76 | 130 | 3.0 | 5.0 | 0.00 | 0.00 | 0.00 | 29 | 1021.4 |
| 20260906015021 | 77 | 136 | 2.0 | 5.0 | 0.00 | 0.00 | 0.00 | 29 | 1021.4 |
| 20260906014548 | 77 | 134 | 3.0 | 5.0 | 0.00 | 0.00 | 0.00 | 28 | 1021.4 |
| 20260906014022 | 78 | 141 | 3.0 | 7.0 | 0.00 | 0.00 | 0.00 | 28 | 1021.3 |
| 20260906013520 | 78 | 135 | 3.0 | 7.0 | 0.00 | 0.00 | 0.00 | 27 | 1021.3 |
| 20260906013041 | 78 | 159 | 5.0 | 7.0 | 0.00 | 0.00 | 0.00 | 27 | 1021.3 |
| 20260906012520 | 79 | 150 | 4.0 | 7.0 | 0.00 | 0.00 | 0.00 | 27 | 1021.2 |
| 20260906012157 | 80 | 155 | 4.0 | 7.0 | 0.00 | 0.00 | 0.00 | 27 | 1021.2 |
| 20260906011540 | 81 | 171 | 4.0 | 10.0 | 0.00 | 0.00 | 0.00 | 26 | 1021.2 |
| 20260906011022 | 81 | 186 | 6.0 | 10.0 | 0.00 | 0.00 | 0.00 | 25 | 1021.3 |
| 20260906010520 | 82 | 208 | 5.0 | 10.0 | 0.00 | 0.00 | 0.00 | 25 | 1021.3 |
| 20260906010041 | 83 | 208 | 4.0 | 9.0 | 0.00 | 0.00 | 0.00 | 24 | 1021.3 |
| 20260906005517 | 83 | 220 | 4.0 | 10.0 | 0.00 | 0.00 | 0.00 | 24 | 1021.3 |
| 20260906005018 | 83 | 169 | 5.0 | 10.0 | 0.00 | 0.00 | 0.00 | 23 | 1021.4 |
| 20260906004646 | 84 | 229 | 5.0 | 14.0 | 0.00 | 0.00 | 0.00 | 23 | 1021.3 |
| 20260906004024 | 85 | 209 | 8.0 | 14.0 | 0.00 | 0.00 | 0.00 | 22 | 1021.4 |
| 20260906003519 | 85 | 217 | 6.0 | 10.0 | 0.00 | 0.00 | 0.00 | 22 | 1021.4 |
| 20260906003043 | 85 | 198 | 6.0 | 13.0 | 0.00 | 0.00 | 0.00 | 22 | 1021.4 |
| 20260906002521 | 85 | 226 | 5.0 | 13.0 | 0.00 | 0.00 | 0.00 | 22 | 1021.3 |
| 20260906002021 | 85 | 200 | 6.0 | 13.0 | 0.00 | 0.00 | 0.00 | 22 | 1021.3 |
| 20260906001539 | 85 | 246 | 8.0 | 13.0 | 0.00 | 0.00 | 0.00 | 23 | 1021.3 |
| 20260906001019 | 85 | 204 | 8.0 | 13.0 | 0.00 | 0.00 | 0.00 | 22 | 1021.3 |
| 20260906000519 | 85 | 188 | 7.0 | 13.0 | 0.00 | 0.00 | 0.00 | 23 | 1021.3 |
| 20260906000040 | 85 | 210 | 8.0 | 13.0 | 0.00 | 0.00 | 0.00 | 23 | 1021.2 |
| 20260905235520 | 85 | 188 | 7.0 | 13.0 | 0.00 | 0.00 | 0.00 | 23 | 1021.2 |
| 20260905235019 | 85 | 198 | 6.0 | 15.0 | 0.00 | 0.00 | 0.00 | 22 | 1021.2 |
| 20260905234536 | 85 | 200 | 8.0 | 15.0 | 0.00 | 0.00 | 0.00 | 23 | 1021.1 |
| 20260905234026 | 86 | 209 | 9.0 | 15.0 | 0.00 | 0.00 | 0.00 | 23 | 1021.2 |
| 20260905233520 | 86 | 160 | 8.0 | 15.0 | 0.00 | 0.00 | 0.00 | 23 | 1021.2 |
| 20260905233038 | 86 | 231 | 10.0 | 17.0 | 0.00 | 0.00 | 0.00 | 23 | 1021.0 |
| 20260905232521 | 85 | 178 | 9.0 | 17.0 | 0.00 | 0.00 | 0.00 | 24 | 1021.0 |
| 20260905232021 | 85 | 206 | 11.0 | 17.0 | 0.00 | 0.00 | 0.00 | 23 | 1021.1 |
| 20260905231536 | 85 | 138 | 11.0 | 16.0 | 0.00 | 0.00 | 0.00 | 24 | 1021.2 |
| 20260905231018 | 85 | 160 | 7.0 | 11.0 | 0.00 | 0.00 | 0.00 | 23 | 1021.2 |
| 20260905230521 | 85 | 115 | 5.0 | 11.0 | 0.00 | 0.00 | 0.00 | 23 | 1021.1 |
| 20260905230045 | 84 | 113 | 5.0 | 10.0 | 0.00 | 0.00 | 0.00 | 23 | 1021.1 |
| 20260905225520 | 84 | 121 | 4.0 | 7.0 | 0.00 | 0.00 | 0.00 | 22 | 1021.1 |
| 20260905225020 | 85 | 58 | 1.0 | 12.0 | 0.00 | 0.00 | 0.00 | 22 | 1021.0 |
| 20260905224537 | 85 | 110 | 3.0 | 18.0 | 0.00 | 0.00 | 0.00 | 22 | 1021.0 |
| 20260905224019 | 86 | 134 | 9.0 | 18.0 | 0.00 | 0.00 | 0.00 | 21 | 1021.0 |
| 20260905223521 | 86 | 64 | 7.0 | 12.0 | 0.00 | 0.00 | 0.00 | 22 | 1021.0 |
| 20260905223045 | 86 | 45 | 6.0 | 11.0 | 0.00 | 0.00 | 0.00 | 21 | 1021.1 |
| 20260905222521 | 85 | 83 | 2.0 | 10.0 | 0.00 | 0.00 | 0.00 | 21 | 1021.1 |
| 20260905222027 | 85 | 18 | 4.0 | 8.0 | 0.00 | 0.00 | 0.00 | 22 | 1021.1 |
| 20260905221547 | 85 | 28 | 4.0 | 9.0 | 0.00 | 0.00 | 0.00 | 22 | 1021.2 |
| 20260905221020 | 84 | 7 | 5.0 | 9.0 | 0.00 | 0.00 | 0.00 | 22 | 1021.2 |